Location: Hikurangi
(35.5333°S, 173.9167°E)
Time: 22:30:20
(UTC+00:00)

Daily predictions for brighter satellites

Satellite Brightness Start Highest point End
(mag) Time Altitude Azimuth Time Altitude Azimuth Time Altitude Azimuth
SL-16 R/B 4.1 14:31:30 10° SSE 14:35:00 32° SE 14:35:00 32° SE
Cosmos 2297 Rocket 3.9 14:58:05 27° E 14:58:05 27° E 15:02:01 10° SE
Lacrosse 5 rocket 4.4 15:09:28 13° SE 15:09:28 13° SE 15:09:56 10° SE
USA 229 DEB 4.3 15:11:47 56° NE 15:12:08 56° ENE 15:19:26 10° SE
USA 229 4.3 15:11:50 55° NE 15:12:14 56° ENE 15:19:30 10° SE
Cosmos 2237 Rocket 3.9 15:22:42 10° S 15:27:48 32° ESE 15:32:50 10° ENE
ALOS 4.5 15:27:24 10° ENE 15:31:10 24° ESE 15:34:56 10° SSE
CZ-2C R/B 4.2 15:35:17 24° S 15:35:17 24° S 15:37:14 10° S
ATLAS CENTAUR R/B 3.4 15:37:03 26° SSE 15:37:03 26° SSE 15:39:13 10° SSE
CZ-2C R/B 3.9 15:37:34 15° E 15:37:34 15° E 15:38:16 10° E
ISS -0.6 15:43:42 13° E 15:43:42 13° E 15:44:28 10° E
DELTA 2 R/B (1) 4.0 15:42:36 56° S 15:42:36 56° S 15:47:58 10° E
Cosmos 1821 Rocket 4.0 15:52:09 62° SW 15:52:09 62° SW 15:57:39 10° S
Meteor 1-25 Rocket 4.1 15:53:38 76° SSW 15:53:38 76° SSW 15:58:54 10° S
Cosmos 2227 Rocket 2.2 15:54:20 69° NNE 15:54:57 78° ENE 16:00:41 10° SSE
Cosmos 1000 Rocket 4.4 15:48:52 10° S 15:55:17 88° W 15:58:31 31° N
Cosmos 1934 Rocket 4.1 15:53:36 36° N 15:56:19 76° E 16:02:43 10° S
NOSS 3-1 (C) 4.2 16:01:36 49° WNW 16:03:51 62° SW 16:11:46 10° SSE
Gblst 52 Del rocket 4.2 16:05:32 64° W 16:06:26 76° SW 16:12:13 10° SE
Cosmos 1500 4.2 16:10:52 33° NE 16:11:58 44° E 16:15:37 10° SSE
Cosmos 1484 Rocket 3.2 16:10:20 25° NNE 16:12:32 63° ESE 16:16:27 10° S
Cosmos 2242 Rocket 3.9 16:10:20 10° S 16:14:51 65° E 16:19:15 10° NNE
SL-19 R/B 4.4 16:09:20 10° S 16:15:44 68° WSW 16:17:40 44° NW
Cosmos 2219 3.4 16:16:41 49° WSW 16:17:02 50° WSW 16:22:39 10° S
deb Chang Zheng 4 4.0 16:20:26 44° SW 16:20:26 44° SW 16:23:32 10° SSW
Cosmos 1356 3.9 16:21:27 54° SSE 16:21:27 54° SSE 16:24:15 10° S
SL-16 R/B 3.7 16:15:50 10° SSW 16:20:05 24° SW 16:20:05 24° SW
Meteor 1-31 Rocket 2.9 16:21:12 10° NNE 16:25:08 77° ESE 16:29:09 10° S
METEOR-M 4.1 16:21:29 10° NNE 16:26:51 84° ESE 16:32:16 10° S
IRIDIUM 106 4.3 16:23:03 10° N 16:28:18 90° E 16:33:37 10° S
Cosmos 1605 Rocket 4.0 16:23:57 10° N 16:30:16 90° NNE 16:36:36 10° S
Meteor 1-14 Rocket 4.1 16:27:17 27° NNW 16:30:23 69° W 16:36:10 10° S
USA 215 4.1 16:25:30 10° ENE 16:31:46 50° SE 16:38:04 10° SW
H-2A R/B 4.0 16:28:59 10° SE 16:32:37 28° E 16:36:16 10° NNE
ADEOS 3.7 16:28:23 10° N 16:33:26 49° W 16:38:33 10° SSW
Meteor 1-28 Rocket 4.4 16:33:18 10° S 16:35:48 29° SW 16:35:48 29° SW
SL-08 R/B 3.5 16:33:11 10° S 16:38:03 56° WSW 16:40:09 32° NW
SEDSat Delta rocket 4.1 16:37:58 28° NNW 16:38:11 28° NNW 16:42:20 10° NE
Cosmos 1933 Rocket 4.4 16:41:00 32° WSW 16:41:00 32° WSW 16:44:35 10° SSW
GEOS 3 Rocket 3.6 16:35:36 10° NNE 16:40:40 53° WNW 16:45:41 10° SW
Cosmos 2297 Rocket 2.9 16:39:56 32° W 16:41:05 35° WSW 16:46:17 10° S
CZ-4B R/B 3.0 16:38:53 10° NNE 16:42:42 73° ESE 16:46:46 10° S
Cosmos 2123 Rocket 4.0 16:37:14 10° SSW 16:43:21 59° W 16:49:26 10° N
Cosmos 489 Rocket 4.4 16:38:23 10° SSW 16:44:45 68° WNW 16:51:03 10° N
Lacrosse 5 rocket 3.5 16:45:06 13° SW 16:45:22 14° SW 16:47:28 10° S
CZ-4B R/B 4.1 16:43:24 10° N 16:47:43 54° W 16:51:57 10° SSW
Cosmos 773 Rocket 4.0 16:43:02 10° SSW 16:48:20 84° ESE 16:53:32 10° NNE
Cosmos 1242 Rocket 3.8 16:44:58 10° S 16:48:30 44° E 16:52:00 10° NNE
FENGYUN 3A 3.8 16:44:55 10° N 16:50:10 48° W 16:55:29 10° SSW
Cosmos 2082 3.7 16:46:15 19° NW 16:50:22 65° WSW 16:56:06 10° SSE
NOSS 0 Rocket 4.5 16:47:22 10° SW 16:52:50 33° WNW 16:58:16 10° NNW
Meteor 2-4 Rocket 3.7 16:51:09 10° S 16:57:07 85° W 17:02:49 10° N
Cosmos 1869 Rocket 3.7 16:56:22 10° NNW 17:00:39 53° W 17:05:03 10° S
SJ 16-02 2.2 16:57:31 10° N 17:01:50 54° ENE 17:06:13 10° SSE
Cosmos 2263 Rocket 3.8 16:57:17 10° N 17:02:29 37° ENE 17:07:41 10° SE
USA 281 3.2 16:56:54 10° NNE 17:03:28 74° WNW 17:10:06 10° SSW
ALOS 3.0 17:04:18 10° NNW 17:08:23 29° W 17:12:30 10° SW
Cosmos 2100 Rocket 4.3 17:03:40 10° N 17:09:55 73° E 17:16:10 10° S
Meteor 1-11 Rocket 3.7 17:04:39 10° N 17:10:11 89° E 17:15:49 10° S
Cosmos 2237 Rocket 2.9 17:06:44 10° SW 17:11:46 32° WNW 17:16:44 10° NNW
H-2A R/B 3.0 17:08:27 10° NNE 17:12:56 71° ESE 17:17:22 10° S
BREEZE-M DEB (TANK) 3.1 17:08:01 10° SW 17:12:57 42° SSE 17:15:14 10° E
SL-16 R/B 2.3 17:07:37 10° SSW 17:13:23 86° ESE 17:19:06 10° NNE
Meteor PRIRODA 3.7 17:10:39 10° N 17:14:12 50° W 17:17:50 10° SSW
Cosmos 1980 4.5 17:09:27 10° SW 17:14:12 28° WNW 17:18:55 10° NNW
CZ-2C R/B 1.0 17:11:55 21° W 17:14:16 83° N 17:18:11 10° E
Cosmos 1459 Rocket 4.3 17:09:00 10° N 17:15:05 73° E 17:21:20 10° S
ISS -3.2 17:16:42 19° WNW 17:18:51 43° SW 17:22:09 10° SE
Meteor 1-13 Rocket 4.2 17:16:11 10° S 17:21:54 88° W 17:27:26 10° N
TELKOM 3 4.0 17:22:21 19° WSW 17:23:19 28° SSW 17:25:22 10° SSE
SeaSat 1 3.4 17:19:21 10° NE 17:24:07 52° ESE 17:28:57 10° SSW
Okean 1-7 4.0 17:21:57 10° SSW 17:25:37 26° W 17:29:14 10° NW
DELTA 2 R/B (1) 3.7 17:23:31 10° WSW 17:29:12 84° SSE 17:34:52 10° ENE
Cosmos 2227 4.4 17:27:49 10° NNW 17:33:27 77° ENE 17:39:10 10° SSE
CZ-4C R/B 3.9 17:32:09 10° S 17:35:24 32° WSW 17:38:40 10° NW
Cosmos 1538 Rocket 4.1 17:31:33 10° SSW 17:36:43 56° WNW 17:41:46 10° N
ATLAS 2A CENTAUR R/B 3.8 17:35:13 10° NW 17:39:35 40° NNE 17:55:01 10° E
Cosmos 2227 Rocket 3.9 17:36:39 10° W 17:39:39 14° SW 17:42:40 10° SSW
NOAA 6 4.0 17:36:44 10° N 17:41:55 76° WNW 17:47:09 10° SSW
MOS 1-B 4.4 17:42:12 10° N 17:47:55 62° WNW 17:53:45 10° SSW
